Вернуться в каталог

SCOUT X-4 R/B

АктивенPO
NORAD 809·ROCKET BODY·🇺🇸 United States

Запущен Jun 4, 1964 с Vandenberg Space Force Base

Loading…

Ближайшие Пролёты (ближайшие 24 часа)

TLE

СвежийSource: Space-Track

Эпоха: Sep 14, 2026, 13:32 UTC

1   809U 64026D   26257.56427329  .00000240  00000-0  12759-3 0  9998
2   809  90.4500 182.3178 0041239 134.9209 225.5334 14.10818771190747

Отслеживайте SCOUT X-4 R/B в реальном времени с AllMySat

Download on the App Store